Location: Unspecified
(40.7945°N, 0.0000°E)
Time: 15:18:21
(UTC+00:00)

METEOR M2 - Pass Details

Date: 13 August 2020
Orbit: 819 x 827 km, 98.5° (Epoch: 23 September)

Event Time Altitude Azimuth Distance (km) Brightness Sun altitude
Rises 19:19:06 0° 164° (SSE) 3,346 ? -4.1°
Reaches altitude 10° 19:21:26 10° 164° (SSE) 2,416 ? -4.5°
Maximum altitude 19:26:48 87° 77° (ENE) 830 ? -5.5°
Drops below altitude 10° 19:32:11 10° 347° (NNW) 2,427 ? -6.4°
Sets 19:34:32 0° 348° (NNW) 3,362 ? -6.8°
